Wind_Speed
2 2 2 2 3 3 5 6 7 8 8 8 8 8 8 8 8 8 8 7 7 7 7 7 7 7 6 6 6 6 6 6 5 5 5 6 6 6 6 6 7 7 7
2 3 3 3 3 3 4 5 6 7 7 7 7 7 7 7 7 7 7 7 7 7 7 7 7 7 6 6 6 6 6 5 5 5 5 5 6 6 6 6 6 7 7
2 3 4 4 4 4 4 4 5 6 6 6 6 6 6 7 7 6 6 7 7 7 7 7 7 6 6 6 6 6 6 5 5 5 5 5 5 5 5 6 6 7 7
2 3 4 5 4 4 4 4 4 5 5 5 5 5 5 6 6 6 6 7 7 7 7 7 6 6 6 6 6 6 6 6 5 5 5 4 4 5 5 5 6 7 7
2 4 4 5 5 4 4 3 3 3 4 4 4 4 4 5 5 6 6 6 6 6 6 6 6 6 5 5 5 5 5 5 5 5 5 5 5 5 5 5 6 6 7
2 3 4 4 5 5 4 4 4 3 3 3 3 3 4 4 5 5 6 6 6 6 6 6 6 5 5 5 5 4 4 5 5 4 4 4 4 4 4 5 5 6 6
1 2 3 4 5 5 5 4 4 3 2 2 2 2 2 3 4 4 4 5 6 6 6 5 5 5 5 5 4 4 4 4 4 4 4 4 4 4 4 4 5 5 5
1 2 3 4 5 5 5 4 4 3 2 2 2 1 1 2 3 3 3 4 5 5 5 5 5 5 4 4 4 3 3 3 3 3 3 3 3 3 3 3 4 4 4
2 2 3 4 5 5 5 5 5 4 3 3 2 1 0 1 2 3 3 3 4 5 5 6 6 5 4 4 3 3 3 2 2 2 2 3 2 2 2 2 2 3 3
2 2 3 4 5 6 6 5 5 5 4 3 2 1 1 1 2 3 3 3 4 5 5 6 6 5 4 3 3 3 3 3 3 2 1 1 1 1 1 1 1 2 3
3 3 3 3 5 6 6 6 7 6 5 4 3 2 2 1 1 2 3 3 4 4 5 5 5 4 3 3 3 3 3 3 3 2 1 0 1 1 1 1 1 2 3
4 4 3 4 4 6 7 7 8 7 7 6 4 4 3 2 2 3 3 4 4 4 4 5 5 4 3 2 2 3 3 3 2 2 1 2 2 2 2 2 2 2 3
5 5 5 4 5 7 8 8 9 9 8 8 6 5 4 3 3 3 4 4 4 4 4 5 5 4 3 2 2 2 2 3 3 2 1 2 2 3 3 3 3 4 4
6 6 6 6 7 7 9 10 10 10 11 10 9 7 7 5 4 4 5 5 4 4 4 4 4 3 2 1 1 1 1 2 2 2 2 2 2 2 2 3 4 5 5
7 7 8 8 9 9 10 11 11 12 12 12 11 10 9 7 6 6 6 6 5 4 4 4 4 3 2 2 1 1 1 1 2 2 2 2 1 2 2 3 4 4 5
9 10 10 10 10 11 11 12 13 13 14 14 13 12 11 9 8 7 7 6 6 5 4 4 3 2 2 2 1 1 1 1 2 2 2 2 2 2 2 3 3 4 4
11 12 12 11 11 12 13 14 14 14 15 15 13 14 13 11 9 8 8 7 6 5 4 3 2 1 1 1 1 0 0 1 1 2 2 2 2 2 2 2 3 3 4
12 12 13 12 13 13 11 13 15 16 16 16 15 15 14 13 11 10 9 8 7 6 5 4 3 2 2 2 1 1 0 1 2 2 2 2 2 2 2 2 2 3 3
12 12 12 12 12 12 13 13 14 15 16 17 16 16 16 15 13 11 10 9 8 7 6 5 4 3 3 3 2 1 1 1 1 2 3 2 1 1 1 2 3 3 4
14 13 11 10 9 11 12 13 14 13 15 16 16 17 18 16 14 12 11 10 9 8 7 6 6 5 5 4 4 2 2 1 1 1 2 2 1 1 1 1 2 2 3
13 12 10 10 10 10 12 14 14 14 14 16 17 18 19 18 15 13 13 12 10 9 8 7 7 7 6 6 5 4 3 3 2 1 1 1 1 1 1 1 1 1 2
13 12 11 9 8 8 11 14 15 15 15 16 17 18 19 18 17 15 15 14 12 11 10 9 8 8 8 7 6 5 4 3 3 1 1 0 0 1 1 2 1 2 2
15 13 11 8 7 7 9 12 15 15 16 17 18 19 19 18 17 15 16 16 14 13 11 10 9 9 9 8 7 6 5 4 4 3 2 2 1 1 1 1 2 2 2
14 11 8 7 7 7 9 11 13 15 16 17 18 20 20 19 18 16 16 16 15 14 12 11 10 10 10 9 8 7 7 6 5 5 4 4 3 3 3 3 4 4 4
11 8 7 8 7 7 7 10 12 15 17 17 18 19 20 20 18 17 16 16 16 15 13 12 11 11 10 10 9 9 8 7 7 7 6 6 6 6 5 5 5 5 5
10 9 8 7 7 7 8 10 11 13 16 18 19 19 20 19 18 17 17 16 17 15 14 14 13 12 12 11 11 10 10 9 8 8 8 8 8 8 8 8 8 8 8
Wind_Direction
133 145 176 169 154 138 118 107 98 92 87 78 67 60 56 52 48 45 43 39 39 42 45 45 43 43 45 49 53 53 51 56 61 67 70 71 72 76 82 85 87 93 97
173 178 180 180 164 151 133 114 101 95 87 77 67 60 56 50 45 42 39 36 35 37 39 40 37 37 40 44 45 43 45 52 57 64 71 74 74 78 84 88 90 95 98
202 188 186 186 174 160 144 122 106 99 89 79 67 61 55 48 41 37 37 35 35 34 34 33 33 35 36 37 38 40 44 53 61 67 73 79 80 82 85 89 93 94 99
216 200 197 194 183 172 155 133 112 104 94 83 71 62 56 47 40 36 36 36 35 33 29 27 27 29 31 33 35 39 46 55 60 67 72 79 83 84 86 88 94 97 102
232 215 203 199 193 185 173 154 132 114 101 90 76 66 59 51 44 38 35 34 34 31 26 23 21 24 26 29 32 38 47 53 59 69 72 77 78 81 86 91 95 102 107
234 216 212 201 194 188 179 167 149 126 112 100 83 73 64 53 45 37 32 32 31 26 22 19 17 20 22 23 27 36 46 52 60 66 66 73 75 78 85 94 101 107 109
209 212 214 197 191 186 182 172 162 147 137 123 101 82 66 47 38 32 29 28 26 21 17 15 15 17 18 18 23 31 39 47 52 61 68 74 79 85 90 99 105 112 115
231 214 200 191 193 187 186 185 178 177 172 159 138 105 72 36 27 26 23 22 20 14 10 7 5 10 13 13 18 27 33 37 44 53 63 74 82 90 97 101 108 118 124
283 239 212 201 199 197 196 195 194 197 196 193 178 165 26 21 16 8 8 12 11 5 1 357 357 2 4 5 8 13 11 21 25 32 52 70 84 99 108 116 125 129 136
296 258 212 207 208 203 201 203 204 206 201 200 214 237 264 333 347 346 348 352 357 354 353 352 350 349 349 357 1 1 5 8 11 20 41 66 84 115 147 165 162 163 159
302 273 235 220 207 203 203 207 210 214 210 209 218 231 242 286 319 328 333 335 338 342 344 344 344 341 338 344 354 2 358 1 8 9 346 284 245 244 226 218 211 191 177
303 281 250 229 214 205 208 210 214 218 215 216 218 228 234 253 280 306 316 316 321 331 334 334 332 331 330 326 334 342 347 352 355 349 310 268 258 259 254 235 214 199 192
300 287 268 252 235 218 215 216 217 221 220 222 221 225 230 249 264 281 290 295 302 316 325 327 326 323 324 322 323 325 336 342 338 337 314 281 270 264 264 244 223 215 210
300 287 277 265 253 239 229 224 223 225 224 225 223 226 229 240 249 263 275 280 286 301 312 317 320 318 318 315 318 324 332 339 338 339 328 298 284 271 264 248 232 223 223
298 287 283 272 260 248 234 227 223 226 229 229 226 227 229 233 239 249 262 268 273 284 298 305 310 311 305 294 303 306 329 349 353 348 337 315 293 273 264 257 242 223 221
297 288 283 272 261 250 239 233 227 226 228 227 226 226 226 229 234 242 253 263 265 272 284 290 296 290 292 289 285 294 318 350 349 345 336 322 302 278 270 263 241 228 226
300 291 282 274 264 255 243 234 228 227 227 224 226 226 224 225 230 237 249 257 257 261 268 272 279 254 263 264 245 240 299 4 350 337 336 327 312 288 269 263 249 242 235
298 293 279 272 262 254 245 239 231 228 225 224 226 224 221 222 225 233 242 250 253 251 253 252 250 232 228 238 235 218 271 24 7 344 341 341 327 302 273 265 259 255 247
300 297 283 273 263 251 248 242 231 224 224 226 225 220 219 221 224 231 237 242 245 247 246 244 238 229 222 224 230 226 237 360 3 350 344 344 339 326 289 270 267 263 258
303 297 288 273 256 249 246 239 228 223 221 219 219 219 220 221 225 230 233 234 236 241 240 240 231 226 222 222 229 230 238 268 301 340 357 356 341 332 314 291 275 262 263
306 302 293 280 259 251 238 231 226 224 223 220 219 219 220 222 227 231 230 230 231 234 232 233 231 227 225 225 227 229 238 249 258 284 348 3 9 355 346 330 314 302 292
309 300 292 289 275 252 236 228 225 224 223 219 220 220 220 222 226 229 228 227 227 231 231 232 233 230 228 227 228 230 232 233 232 225 237 181 54 14 4 1 357 344 332
305 300 296 292 278 258 243 230 229 225 223 219 217 219 220 221 223 226 228 228 228 230 229 230 233 231 228 226 226 227 227 228 231 238 242 238 246 263 286 328 327 325 325
304 299 286 293 274 260 246 234 230 224 224 220 218 219 219 220 221 227 228 225 225 227 228 230 232 231 227 224 224 226 227 230 237 243 250 250 251 256 270 289 292 293 296
308 311 297 290 276 255 248 240 230 223 223 222 219 216 216 218 223 225 225 223 224 226 228 230 231 230 226 223 224 228 232 237 241 246 251 255 259 262 270 279 280 283 284
307 310 301 288 279 261 250 241 231 223 223 222 221 217 217 219 221 222 224 225 226 226 228 230 233 233 230 227 227 232 238 242 247 253 257 261 264 268 273 276 277 276 280
Height
5874 5875 5876 5877 5878 5878 5879 5880 5881 5881 5882 5883 5884 5885 5885 5886 5886 5886 5886 5887 5886 5886 5886 5886 5886 5886 5886 5886 5886 5885 5885 5885 5885 5885 5885 5885 5885 5886 5886 5886 5886 5886 5887
5874 5875 5876 5877 5877 5878 5879 5880 5881 5882 5883 5883 5884 5885 5886 5886 5886 5887 5887 5887 5887 5887 5887 5886 5886 5886 5886 5886 5886 5886 5886 5886 5886 5886 5886 5886 5886 5886 5886 5887 5887 5887 5888
5874 5874 5875 5876 5877 5878 5879 5880 5881 5882 5883 5884 5885 5885 5886 5887 5887 5887 5887 5887 5887 5887 5887 5887 5887 5887 5887 5886 5886 5886 5886 5886 5886 5886 5886 5887 5887 5887 5887 5887 5887 5888 5888
5874 5874 5875 5876 5877 5878 5879 5880 5881 5882 5883 5884 5885 5886 5886 5887 5887 5888 5888 5888 5888 5888 5888 5887 5887 5887 5887 5887 5887 5887 5887 5887 5887 5887 5887 5887 5887 5888 5888 5888 5888 5888 5889
5874 5874 5875 5876 5877 5878 5879 5880 5881 5882 5883 5884 5885 5885 5886 5887 5887 5888 5888 5888 5888 5888 5888 5888 5888 5888 5887 5887 5887 5887 5887 5887 5887 5887 5887 5888 5888 5888 5888 5889 5889 5889 5890
5874 5874 5875 5875 5876 5877 5878 5879 5880 5881 5882 5883 5884 5885 5886 5887 5887 5887 5888 5888 5888 5889 5888 5888 5888 5888 5888 5888 5888 5888 5888 5888 5888 5888 5888 5888 5888 5888 5889 5889 5889 5890 5890
5873 5874 5874 5875 5876 5877 5878 5879 5880 5881 5882 5883 5884 5885 5886 5886 5887 5887 5888 5888 5889 5889 5889 5889 5889 5889 5888 5888 5888 5888 5888 5888 5888 5888 5888 5888 5889 5889 5889 5889 5890 5890 5891
5873 5874 5874 5875 5875 5876 5877 5879 5880 5881 5882 5883 5884 5885 5885 5886 5887 5887 5888 5888 5889 5889 5889 5889 5889 5889 5888 5888 5888 5888 5888 5888 5888 5888 5888 5888 5889 5889 5890 5890 5890 5891 5891
5873 5873 5874 5874 5875 5876 5877 5878 5879 5880 5882 5882 5884 5884 5885 5886 5887 5887 5888 5888 5888 5889 5889 5889 5889 5889 5888 5888 5888 5888 5888 5888 5888 5889 5889 5889 5889 5889 5890 5890 5891 5891 5892
5873 5873 5873 5873 5874 5875 5876 5877 5879 5880 5881 5882 5883 5884 5885 5886 5886 5887 5888 5888 5888 5889 5889 5889 5889 5889 5888 5888 5888 5888 5888 5888 5888 5889 5889 5889 5889 5890 5890 5891 5891 5891 5892
5872 5872 5872 5872 5873 5874 5875 5877 5878 5879 5881 5882 5883 5884 5884 5885 5886 5887 5887 5888 5888 5888 5889 5889 5889 5888 5888 5888 5889 5888 5888 5888 5888 5889 5889 5889 5889 5890 5890 5891 5891 5891 5892
5872 5872 5871 5872 5872 5873 5874 5876 5877 5878 5880 5881 5882 5883 5884 5885 5886 5886 5887 5888 5888 5888 5888 5888 5888 5888 5888 5888 5888 5888 5888 5888 5888 5888 5889 5889 5889 5890 5890 5890 5891 5891 5892
5871 5871 5870 5871 5871 5872 5873 5874 5876 5877 5878 5880 5881 5882 5883 5884 5885 5886 5887 5887 5888 5888 5888 5888 5888 5888 5888 5888 5888 5888 5888 5888 5888 5888 5889 5889 5889 5889 5890 5890 5890 5891 5892
5869 5869 5869 5869 5870 5870 5871 5872 5874 5875 5877 5878 5879 5881 5882 5883 5884 5885 5886 5886 5887 5888 5888 5888 5888 5888 5888 5888 5888 5888 5888 5888 5888 5888 5888 5889 5889 5889 5889 5890 5890 5891 5891
5868 5867 5867 5867 5867 5868 5869 5870 5872 5873 5875 5876 5878 5879 5881 5882 5883 5884 5885 5886 5886 5887 5887 5888 5887 5887 5888 5888 5888 5888 5888 5888 5888 5888 5888 5889 5889 5889 5889 5889 5889 5890 5890
5866 5865 5865 5865 5865 5865 5866 5867 5869 5871 5872 5874 5876 5877 5879 5880 5882 5883 5884 5885 5886 5886 5887 5887 5887 5887 5887 5888 5888 5888 5888 5888 5888 5889 5889 5889 5888 5889 5889 5889 5889 5889 5890
5863 5862 5862 5861 5861 5862 5863 5864 5865 5867 5869 5871 5873 5875 5877 5879 5880 5882 5883 5884 5885 5885 5886 5886 5887 5887 5887 5888 5888 5888 5888 5888 5889 5889 5889 5889 5888 5888 5888 5889 5889 5889 5889
5859 5858 5858 5858 5858 5858 5859 5860 5862 5864 5866 5868 5870 5873 5875 5877 5879 5880 5882 5883 5883 5884 5885 5885 5886 5887 5887 5888 5888 5888 5888 5888 5888 5889 5888 5888 5888 5888 5888 5889 5889 5889 5889
5856 5855 5854 5854 5854 5855 5856 5857 5859 5860 5862 5865 5868 5870 5873 5875 5877 5879 5880 5881 5882 5883 5884 5884 5885 5886 5887 5888 5888 5888 5888 5888 5889 5889 5889 5888 5888 5888 5888 5888 5888 5889 5889
5854 5853 5851 5851 5851 5852 5853 5854 5855 5857 5860 5862 5865 5868 5871 5873 5875 5877 5879 5880 5881 5882 5883 5884 5884 5885 5886 5887 5888 5888 5888 5888 5889 5889 5889 5889 5888 5888 5888 5888 5888 5888 5889
5852 5851 5849 5849 5848 5848 5849 5850 5853 5855 5857 5860 5862 5865 5868 5871 5873 5875 5877 5878 5880 5881 5882 5883 5884 5885 5886 5886 5887 5888 5888 5888 5888 5889 5889 5889 5889 5889 5889 5888 5888 5888 5888
5850 5848 5847 5846 5845 5845 5846 5848 5850 5852 5854 5857 5859 5862 5865 5868 5870 5872 5875 5877 5878 5880 5881 5882 5883 5884 5885 5885 5886 5887 5888 5889 5888 5888 5888 5889 5889 5889 5889 5889 5889 5889 5889
5847 5846 5845 5844 5843 5843 5843 5845 5847 5849 5851 5854 5857 5860 5863 5865 5868 5870 5872 5874 5876 5878 5879 5880 5881 5882 5883 5884 5885 5887 5887 5888 5888 5888 5888 5888 5888 5889 5889 5889 5889 5889 5888
5845 5843 5842 5842 5841 5841 5841 5842 5844 5846 5849 5851 5854 5857 5860 5863 5866 5868 5870 5872 5874 5876 5877 5879 5880 5881 5882 5883 5884 5885 5886 5887 5887 5888 5888 5888 5888 5888 5888 5888 5888 5888 5888
5843 5841 5841 5840 5839 5839 5839 5840 5842 5844 5846 5849 5851 5854 5857 5860 5863 5865 5868 5870 5872 5874 5875 5877 5878 5880 5881 5882 5883 5884 5885 5885 5886 5887 5887 5887 5887 5887 5888 5888 5888 5888 5887
5842 5840 5839 5839 5837 5836 5837 5838 5840 5842 5844 5846 5849 5852 5855 5858 5860 5863 5865 5867 5869 5871 5873 5875 5876 5878 5879 5880 5881 5882 5883 5884 5884 5885 5885 5886 5886 5886 5886 5886 5886 5886 5886